Weather in Blantyre

Malawi     15°48′09″S   35°00′55″E
temp.,
°C
wind,
m/s
gust,
m/s
humid.,
%
clouds,
%
prec.,
mm/h
press.,
hPa
HPBL,
m
20 april, tue
tue2023:00+16se259385 0.0 1019236
02:00+16se239256 0.0 1018199
05:00+16se239489 0.1 1018160
08:00+19sse257626 0.1 1020537
11:00+23s345892 0.2 10191363
14:00+22s346299 0.4 10171197
17:00+20sse3673100 0.2 1018459
20:00+17sse3985100 0.2 1020462
21 april, wed
wed2123:00+16sse369298 0.0 1020305
02:00+16sse259081 0.0 1019244
05:00+16sse269399 0.0 1019356
08:00+18s2683100 0.1 1021642
11:00+21sse2471100 0.1 10191090
14:00+20s2477100 0.3 1017777
17:00+19sse248599 0.2 1017352
20:00+18se2689100 0.2 1019324
22 april, thu
thu2223:00+18sse3893100 0.1 1019477
02:00+17sse3792100 0.1 1018445
05:00+17sse259296 0.0 1018352
08:00+18sse3790100 0.2 1020720
11:00+18sse259390 0.3 1020465
14:00+22sse347025 0.5 1017836
17:00+20sse358280 0.2 1017442
20:00+17se27906 0.2 1019240
23 april, fri
fri2323:00+17se379651 0.0 1019252
02:00+16se359367 0.0 1018226
05:00+15se12965 0.0 101857
08:00+20s13695 0.0 1019471
11:00+25ssw23460 0.0 10161288
14:00+26s324413 0.0 10141603
17:00+21se36630 0.0 1015449
20:00+19se25690 0.0 1016181
24 april, sat
sat2423:00+17ese23775 0.0 101669
02:00+16ese21790 0.0 101521
05:00+16se22800 0.0 101622
08:00+21sse13570 0.0 1017396
11:00+26s23390 0.0 10161273
14:00+27ssw22360 0.0 10131795
17:00+23ese23580 0.0 1013298
20:00+20ese23622 0.0 101588